This is the latest recevied weather packets stored in our database for station/object VE6HFD-WX. If no packets are shown the sender has not sent any weather packets the latest 10 day(s).
| Time | Temp. | Humidity | Pressure | Rain* | Wind** | Luminosity | Snow |
|---|---|---|---|---|---|---|---|
| 1777943847 | 8.33° C | 44% | 1016.1 hPa | 0 mm | - | - | - |
| 1777943517 | 8.33° C | 43% | 1016.1 hPa | 0 mm | - | - | - |
| 1777943217 | 8.33° C | 43% | 1016.1 hPa | 0 mm | - | - | - |
| 1777942887 | 8.33° C | 42% | 1016 hPa | 0 mm | - | - | - |
| 1777942587 | 8.89° C | 42% | 1016 hPa | 0 mm | - | - | - |
| 1777942287 | 8.89° C | 42% | 1016 hPa | 0 mm | - | - | - |
| 1777941957 | 8.89° C | 42% | 1016.1 hPa | 0 mm | - | - | - |
| 1777941627 | 8.89° C | 40% | 1015.9 hPa | 0 mm | - | - | - |
| 1777941297 | 8.89° C | 41% | 1016 hPa | 0 mm | - | - | - |
| 1777940967 | 8.89° C | 40% | 1016.1 hPa | 0 mm | - | - | - |
| 1777940667 | 8.89° C | 40% | 1015.9 hPa | 0 mm | - | - | - |
| 1777940367 | 9.44° C | 38% | 1016 hPa | 0 mm | - | - | - |
| 1777940037 | 9.44° C | 39% | 1016 hPa | 0 mm | - | - | - |
| 1777939737 | 10° C | 39% | 1015.9 hPa | 0 mm | - | - | - |
| 1777939437 | 9.44° C | 38% | 1015.8 hPa | 0 mm | - | - | - |
| 1777939107 | 9.44° C | 39% | 1015.8 hPa | 0 mm | - | - | - |
| 1777938777 | 9.44° C | 39% | 1015.9 hPa | 0 mm | - | - | - |
| 1777938447 | 9.44° C | 38% | 1015.8 hPa | 0 mm | - | - | - |
| 1777938147 | 9.44° C | 36% | 1015.8 hPa | 0 mm | - | - | - |
| 1777937817 | 10° C | 37% | 1015.7 hPa | 0 mm | - | - | - |
| 1777937517 | 9.44° C | 38% | 1015.8 hPa | 0 mm | - | - | - |
| 1777937187 | 9.44° C | 38% | 1015.8 hPa | 0 mm | - | - | - |
| 1777936857 | 8.89° C | 40% | 1015.8 hPa | 0 mm | - | - | - |
| 1777936557 | 9.44° C | 39% | 1015.9 hPa | 0 mm | - | - | - |
| 1777936227 | 10° C | 35% | 1015.7 hPa | 0 mm | - | - | - |
* Rain latest hour (hover to see other rain measurements)
** Current wind speed in m/s (hover to see current wind gust speed)